Вернуться в каталог

LEMUR-2-ALYX

АктивенНаукаSSO
NORAD 69928·PAYLOAD·🇺🇸 United States

Запущен Jul 7, 2026 с Vandenberg Space Force Base

Loading…

Ближайшие Пролёты (ближайшие 24 часа)

TLE

СвежийSource: Space-Track

Эпоха: Sep 14, 2026, 12:50 UTC

1 69928U 26156BM  26257.53517795  .00003318  00000-0  32778-3 0  9993
2 69928  97.7492 156.9314 0007177 298.2110  61.8384 14.92599558 10321

Отслеживайте LEMUR-2-ALYX в реальном времени с AllMySat

Download on the App Store